User: anonymous   Login
Location: Unspecified
(0.0000°N, 0.0000°E)
Time: 02:58:13
(UTC+00:00)
Language:

KUIPER-00042 - Orbit

View from above orbital plane
View from above orbital plane
View from above satellite
View from above satellite

Ground track
Ground track

The orbit is defined by the following mean orbital elements,

1 64503U          26145.57244147 +.00000000 +00000-0 +52166-3 0 00006
2 64503  51.8991 260.5822 0000395 117.6335 242.4668 14.79940499    09
Epoch (UTC): 25 May 2026 13:44:18
Eccentricity: 0.0000395
inclination: 51.8991°
perigee height: 629 km
apogee height: 630 km
right ascension of ascending node: 260.5822°
argument of perigee: 117.6335°
revolutions per day: 14.79940499
mean anomaly at epoch: 242.4668°

The dashed part of the orbit path shows where the satellite is in the earth's shadow,  

DLR